GW4420 Weather Reports


time (UTC)temp
C
wind
direction
speed
KPH
gust
KPH
rain 1hr
cm
rain 24hr
cm
rain mn
cm
humidity
%
barometer
mb
20260503033700 27 93 6.4 16.1 0.00 0.00 0.00 76 1014.6
20260503033157 27 336 6.4 16.1 0.00 0.00 0.00 76 1014.8
20260503032655 27 65 3.2 17.7 0.00 0.00 0.00 76 1014.6
20260503032154 27 136 12.9 20.9 0.00 0.00 0.00 76 1014.7
20260503031651 27 117 12.9 17.7 0.00 0.00 0.00 76 1015.1
20260503031149 27 127 9.7 12.9 0.00 0.00 0.00 76 1014.8
20260503030644 27 147 8.0 12.9 0.00 0.00 0.00 76 1015.0
20260503030141 28 161 8.0 14.5 0.00 0.00 0.00 74 1015.1
20260503025638 27 104 14.5 24.1 0.00 0.00 0.00 76 1015.2
20260503025136 27 72 3.2 16.1 0.00 0.00 0.00 77 1015.1
20260503024632 27 72 11.3 16.1 0.00 0.00 0.00 76 1015.3
20260503024129 27 153 14.5 17.7 0.00 0.00 0.00 75 1015.3
20260503023627 27 105 16.1 22.5 0.00 0.00 0.00 77 1015.4
20260503023124 27 85 9.7 17.7 0.00 0.00 0.00 76 1015.3
20260503022619 27 184 6.4 14.5 0.00 0.00 0.00 77 1015.2
20260503022114 27 148 8.0 11.3 0.00 0.00 0.00 78 1015.2
20260503021611 27 168 9.7 24.1 0.00 0.00 0.00 77 1015.3
20260503021108 27 197 4.8 24.1 0.00 0.00 0.00 77 1015.1
20260503020605 27 88 4.8 12.9 0.00 0.00 0.00 77 1015.3
20260503015559 27 114 6.4 20.9 0.00 0.00 0.00 78 1015.3
20260503015056 27 75 3.2 16.1 0.00 0.00 0.00 79 1015.2
20260503014552 27 134 3.2 9.7 0.00 0.00 0.00 79 1015.5
20260503014050 27 102 6.4 16.1 0.00 0.00 0.00 78 1015.3
20260503013547 26 118 6.4 14.5 0.00 0.00 0.00 79 1015.3
20260503013044 26 80 11.3 16.1 0.00 0.00 0.00 80 1015.3
20260503012542 26 111 6.4 12.9 0.00 0.00 0.00 80 1015.2
20260503012038 26 90 1.6 9.7 0.00 0.00 0.00 82 1015.2
20260503011535 26 160 3.2 16.1 0.00 0.00 0.00 83 1015.4
20260503011032 25 63 4.8 14.5 0.00 0.00 0.00 83 1015.6
20260503010528 25 135 6.4 16.1 0.00 0.00 0.00 82 1015.7
20260503010026 26 107 6.4 12.9 0.00 0.00 0.00 82 1015.6
20260503005523 25 173 14.5 16.1 0.00 0.00 0.00 83 1015.6
20260503005020 25 111 4.8 14.5 0.00 0.00 0.00 83 1015.5
20260503004516 25 90 3.2 12.9 0.00 0.00 0.00 83 1015.3
20260503004014 25 56 3.2 11.3 0.00 0.00 0.00 83 1015.4
20260503003511 25 87 3.2 11.3 0.00 0.00 0.00 83 1015.7
20260503003008 25 101 9.7 20.9 0.00 0.00 0.00 83 1015.3
20260503002505 25 96 4.8 9.7 0.00 0.00 0.00 84 1015.4
20260503002001 25 143 4.8 9.7 0.00 0.00 0.00 84 1015.3
20260503001458 25 140 4.8 9.7 0.00 0.00 0.00 86 1015.4
20260503000955 25 117 4.8 11.3 0.00 0.00 0.00 85 1015.4
20260503000453 25 135 1.6 11.3 0.00 0.00 0.00 85 1015.1
20260502235950 25 94 0.0 3.2 0.00 0.00 0.00 85 1015.2
20260502235446 25 92 6.4 6.4 0.00 0.00 0.00 85 1015.2
20260502234944 25 100 6.4 11.3 0.00 0.00 0.00 85 1015.2
20260502234440 25 86 3.2 6.4 0.00 0.00 0.00 85 1014.9
20260502233938 25 68 4.8 11.3 0.00 0.00 0.00 85 1015.0
20260502233433 25 84 1.6 9.7 0.00 0.00 0.00 86 1015.1
20260502232930 25 67 3.2 11.3 0.00 0.00 0.00 86 1015.0
20260502232426 25 46 4.8 9.7 0.00 0.00 0.00 86 1015.1
20260502231923 25 88 1.6 3.2 0.00 0.00 0.00 87 1015.2
20260502231420 24 107 3.2 12.9 0.00 0.00 0.00 86 1015.1
20260502230919 24 101 1.6 11.3 0.00 0.00 0.00 86 1014.9
20260502230416 25 74 1.6 4.8 0.00 0.00 0.00 86 1014.8
20260502225914 25 54 1.6 6.4 0.00 0.00 0.00 87 1014.9
20260502225410 24 94 4.8 12.9 0.00 0.00 0.00 87 1014.7
20260502224907 24 107 8.0 11.3 0.00 0.00 0.00 87 1014.9
20260502224403 24 70 6.4 12.9 0.00 0.00 0.00 87 1014.8
20260502223900 24 70 6.4 11.3 0.00 0.00 0.00 87 1014.6
20260502223358 23 68 6.4 9.7 0.00 0.00 0.00 88 1014.9
20260502222856 23 86 4.8 6.4 0.00 0.00 0.00 88 1014.8
20260502222353 23 98 4.8 11.3 0.00 0.00 0.00 88 1015.0
20260502221848 23 92 9.7 11.3 0.00 0.00 0.00 88 1015.0
20260502221345 23 101 6.4 9.7 0.00 0.00 0.00 89 1014.9
20260502220843 23 92 6.4 6.4 0.00 0.00 0.00 89 1014.8
20260502220338 23 84 3.2 6.4 0.00 0.00 0.00 89 1014.8
20260502215835 23 78 1.6 9.7 0.00 0.00 0.00 89 1014.9
20260502215333 23 61 1.6 4.8 0.00 0.00 0.00 89 1015.0
20260502214829 23 113 4.8 9.7 0.00 0.00 0.00 89 1014.7
20260502214325 23 135 3.2 4.8 0.00 0.00 0.00 89 1014.4
20260502213823 23 105 3.2 9.7 0.00 0.00 0.00 89 1014.6
20260502213320 23 97 4.8 11.3 0.00 0.00 0.00 89 1014.4
20260502212819 23 77 8.0 11.3 0.00 0.00 0.00 89 1014.4
20260502212317 23 84 1.6 6.4 0.00 0.00 0.00 89 1014.5
20260502211814 23 93 3.2 3.2 0.00 0.00 0.00 89 1014.6
20260502211309 23 92 1.6 4.8 0.00 0.00 0.00 89 1014.7
20260502210807 23 86 3.2 3.2 0.00 0.00 0.00 89 1014.7
20260502210305 23 14 0.0 4.8 0.00 0.00 0.00 89 1014.6
20260502205802 23 77 1.6 3.2 0.00 0.00 0.00 89 1014.8
20260502205257 23 71 4.8 9.7 0.00 0.00 0.00 89 1014.9
20260502204755 22 125 6.4 11.3 0.00 0.00 0.00 89 1014.8
20260502204252 22 89 6.4 6.4 0.00 0.00 0.00 89 1014.7
20260502203749 22 95 4.8 9.7 0.00 0.00 0.00 88 1014.7
20260502203247 22 96 3.2 9.7 0.00 0.00 0.00 88 1014.7
20260502202741 22 115 3.2 11.3 0.00 0.00 0.00 88 1014.7
20260502202240 22 86 6.4 11.3 0.00 0.00 0.00 88 1014.9
20260502201737 22 19 1.6 9.7 0.00 0.00 0.00 88 1014.7
20260502201233 22 101 0.0 3.2 0.00 0.00 0.00 88 1014.5
20260502200724 22 98 3.2 6.4 0.00 0.00 0.00 88 1014.5
20260502200220 22 69 8.0 14.5 0.00 0.00 0.00 88 1014.5
20260502195719 22 81 6.4 9.7 0.00 0.00 0.00 88 1014.4
20260502195215 22 125 6.4 9.7 0.00 0.00 0.00 88 1014.8
20260502194712 22 37 4.8 9.7 0.00 0.00 0.00 88 1014.7
20260502194209 22 57 3.2 6.4 0.00 0.00 0.00 88 1014.8
20260502193705 22 97 3.2 6.4 0.00 0.00 0.00 88 1014.9
20260502193202 22 92 6.4 12.9 0.00 0.00 0.00 88 1014.8
20260502192657 22 76 4.8 9.7 0.00 0.00 0.00 88 1014.9
20260502192155 22 99 3.2 6.4 0.00 0.00 0.00 88 1014.8
20260502191651 22 49 4.8 4.8 0.00 0.00 0.00 87 1014.8
20260502191143 22 86 3.2 11.3 0.00 0.00 0.00 87 1014.8
20260502190640 22 126 4.8 11.3 0.00 0.00 0.00 87 1014.8
20260502190138 22 101 9.7 12.9 0.00 0.00 0.00 87 1014.8
20260502185632 22 102 1.6 6.4 0.00 0.00 0.00 87 1015.1
20260502185130 22 81 3.2 4.8 0.00 0.00 0.00 87 1014.9
20260502184626 22 40 3.2 11.3 0.00 0.00 0.00 87 1015.0
20260502184121 22 54 4.8 6.4 0.00 0.00 0.00 87 1015.1
20260502183618 22 96 6.4 9.7 0.00 0.00 0.00 87 1015.0
20260502183115 22 75 3.2 6.4 0.00 0.00 0.00 87 1015.1
20260502182609 22 85 6.4 12.9 0.00 0.00 0.00 87 1015.1
20260502182105 22 90 0.0 6.4 0.00 0.00 0.00 87 1015.3
20260502181602 22 59 3.2 4.8 0.00 0.00 0.00 87 1015.3
20260502181056 22 73 0.0 12.9 0.00 0.00 0.00 87 1015.3
20260502180553 22 82 3.2 12.9 0.00 0.00 0.00 87 1015.3
20260502170506 22 100 3.2 6.4 0.00 0.00 0.00 86 1016.2
20260502163949 22 65 0.0 3.2 0.00 0.00 0.00 85 1016.6
20260502163445 22 89 4.8 9.7 0.00 0.00 0.00 85 1016.5
20260502162943 22 92 4.8 6.4 0.00 0.00 0.00 84 1016.6
20260502162439 22 86 3.2 11.3 0.00 0.00 0.00 84 1016.8
20260502161937 22 88 4.8 11.3 0.00 0.00 0.00 84 1016.7
20260502161433 22 72 1.6 6.4 0.00 0.00 0.00 84 1016.9
20260502160931 22 95 4.8 6.4 0.00 0.00 0.00 84 1016.9
20260502160429 22 84 4.8 6.4 0.00 0.00 0.00 84 1016.8
20260502151907 22 63 3.2 11.3 0.00 0.00 0.00 83 1017.1
20260502151403 22 89 1.6 11.3 0.00 0.00 0.00 83 1017.2
20260502150901 22 86 6.4 12.9 0.00 0.00 0.00 82 1017.3
20260502150357 22 132 8.0 11.3 0.00 0.00 0.00 82 1017.1
20260502130745 22 39 1.6 6.4 0.00 0.00 0.00 79 1017.8
20260502130243 22 78 4.8 14.5 0.00 0.00 0.00 79 1017.7
20260502123729 22 13 1.6 6.4 0.00 0.00 0.00 78 1017.7
20260502123225 22 51 3.2 9.7 0.00 0.00 0.00 78 1017.9
20260502122722 22 85 3.2 6.4 0.00 0.00 0.00 78 1017.5
20260502122218 22 86 0.0 6.4 0.00 0.00 0.00 78 1017.5
20260502121717 22 97 4.8 6.4 0.00 0.00 0.00 78 1017.5
20260502121214 22 31 6.4 6.4 0.00 0.00 0.00 78 1017.4
20260502120710 22 50 1.6 4.8 0.00 0.00 0.00 78 1017.1
20260502120208 22 85 3.2 9.7 0.00 0.00 0.00 78 1017.0
20260502115705 22 337 1.6 1.6 0.00 0.00 0.00 78 1017.1
20260502115202 22 90 1.6 4.8 0.00 0.00 0.00 78 1017.2
20260502114657 22 105 1.6 3.2 0.00 0.00 0.00 78 1017.3
20260502114155 22 103 4.8 6.4 0.00 0.00 0.00 77 1017.1
20260502113652 22 71 3.2 9.7 0.00 0.00 0.00 77 1017.0
20260502113150 22 83 0.0 4.8 0.00 0.00 0.00 77 1017.1
20260502112648 22 63 0.0 3.2 0.00 0.00 0.00 77 1017.0
20260502112145 22 87 4.8 6.4 0.00 0.00 0.00 77 1017.1
20260502111642 22 123 1.6 9.7 0.00 0.00 0.00 76 1017.2
20260502111140 22 100 0.0 6.4 0.00 0.00 0.00 76 1017.1
20260502110638 22 126 0.0 3.2 0.00 0.00 0.00 76 1017.2
20260502110134 22 89 3.2 3.2 0.00 0.00 0.00 76 1017.2
20260502105632 22 48 6.4 14.5 0.00 0.00 0.00 76 1017.2
20260502105129 22 70 0.0 6.4 0.00 0.00 0.00 76 1017.0
20260502104626 22 89 4.8 11.3 0.00 0.00 0.00 76 1016.8
20260502104124 22 101 6.4 6.4 0.00 0.00 0.00 75 1016.9
20260502103621 22 87 0.0 6.4 0.00 0.00 0.00 75 1016.8
20260502103119 22 101 3.2 11.3 0.00 0.00 0.00 75 1016.8
20260502102616 22 47 6.4 9.7 0.00 0.00 0.00 75 1017.0
20260502102112 22 142 4.8 9.7 0.00 0.00 0.00 75 1016.7
20260502101610 22 104 3.2 6.4 0.00 0.00 0.00 75 1016.7
20260502101108 22 61 3.2 6.4 0.00 0.00 0.00 74 1016.6
20260502100607 22 40 4.8 12.9 0.00 0.00 0.00 74 1016.5
20260502100105 22 28 4.8 6.4 0.00 0.00 0.00 74 1016.5
20260502091038 22 119 4.8 9.7 0.00 0.00 0.00 72 1016.5
20260502090535 22 75 3.2 6.4 0.00 0.00 0.00 72 1016.4
20260502071430 23 65 9.7 16.1 0.00 0.00 0.00 68 1016.5
20260502070928 23 28 9.7 14.5 0.00 0.00 0.00 67 1016.9
20260502070426 23 56 3.2 16.1 0.00 0.00 0.00 68 1016.6
20260502065924 23 127 6.4 14.5 0.00 0.00 0.00 68 1016.5
20260502065422 23 86 9.7 17.7 0.00 0.00 0.00 68 1016.9
20260502064920 23 33 4.8 6.4 0.00 0.00 0.00 67 1016.8
20260502064417 23 133 8.0 14.5 0.00 0.00 0.00 66 1017.1
20260502063914 24 88 11.3 20.9 0.00 0.00 0.00 66 1017.2
20260502063412 23 105 6.4 9.7 0.00 0.00 0.00 67 1017.2
20260502062910 23 46 11.3 14.5 0.00 0.00 0.00 66 1017.3
20260502062407 23 7 6.4 17.7 0.00 0.00 0.00 67 1017.3
20260502061906 23 64 4.8 16.1 0.00 0.00 0.00 66 1017.4
20260502061403 24 54 6.4 14.5 0.00 0.00 0.00 64 1017.3
20260502060859 25 135 6.4 11.3 0.00 0.00 0.00 64 1017.2
20260502060353 24 86 8.0 11.3 0.00 0.00 0.00 65 1017.6
20260502055851 23 18 6.4 9.7 0.00 0.00 0.00 64 1017.7
20260502055349 23 30 4.8 12.9 0.00 0.00 0.00 64 1017.5
20260502054849 23 138 1.6 14.5 0.00 0.00 0.00 65 1017.6
20260502054345 24 12 6.4 12.9 0.00 0.00 0.00 64 1017.8
20260502053843 23 93 3.2 14.5 0.00 0.00 0.00 64 1017.6
20260502053340 24 39 6.4 17.7 0.00 0.00 0.00 64 1017.8
20260502052837 24 31 9.7 16.1 0.00 0.00 0.00 63 1018.1
20260502052336 24 36 6.4 9.7 0.00 0.00 0.00 64 1017.9
20260502051833 24 105 3.2 12.9 0.00 0.00 0.00 64 1018.2
20260502051332 24 167 3.2 16.1 0.00 0.00 0.00 64 1018.1
20260502050827 23 42 6.4 11.3 0.00 0.00 0.00 64 1018.2
20260502050324 24 98 6.4 12.9 0.00 0.00 0.00 63 1018.1
20260502045821 24 303 3.2 12.9 0.00 0.00 0.00 63 1018.0
20260502045317 24 120 3.2 6.4 0.00 0.00 0.00 63 1018.2
20260502044814 25 97 3.2 12.9 0.00 0.00 0.00 62 1018.0
20260502044310 24 138 1.6 6.4 0.00 0.00 0.00 64 1018.2
20260502043808 24 92 4.8 11.3 0.00 0.00 0.00 63 1018.3
20260502043305 24 49 1.6 11.3 0.00 0.00 0.00 62 1017.8
20260502042805 23 38 1.6 12.9 0.00 0.00 0.00 62 1018.2
20260502042305 23 17 4.8 24.1 0.00 0.00 0.00 63 1018.4
20260502041800 23 87 6.4 9.7 0.00 0.00 0.00 63 1018.4
20260502041257 23 161 6.4 17.7 0.00 0.00 0.00 63 1018.5
20260502040754 23 57 12.9 20.9 0.00 0.00 0.00 62 1018.5
20260502040251 23 69 3.2 22.5 0.00 0.00 0.00 63 1018.6
20260502035747 23 105 1.6 12.9 0.00 0.00 0.00 61 1018.6
20260502035244 24 73 3.2 14.5 0.00 0.00 0.00 61 1018.6
20260502034741 23 22 1.6 9.7 0.00 0.00 0.00 63 1018.8
20260502034240 23 359 4.8 20.9 0.00 0.00 0.00 62 1018.7